DELTA 1 DEB, 42644

Orbit data source: Space-Track

DELTA 1 DEB, 42644 is space debris in SSO originally from a launch on Thu, 12 Jun 1975 UTC launched from the Air Force Western Test Range (AFWTR). Debris objects in space refer to the collection of defunct objects orbiting the Earth. Examples of debris include non-operational satellites, rocket bodies, and fragments generated from explosions, collisions, or faulty payload assembly.

Loading next visibility...
Identifier
42644, 1975-052MD
Orbit
SSO
Country
Flag of USUS
Related business
Manufacturer
Unknown
Mission
Spacecraft
Bus & Motor
Unknown
Mass
Unknown
Launch date (UTC)
1975-06-12 (50 years ago)
Launch vehicle
Unknown
Launch site
Air Force Western Test Range (AFWTR)
Object type
Payload
Rocket body
Debris
Shape & HBR
Unknown shape, 0.1 m
Radar Cross Section
Small (<0.1 m²)

Expand to show TLE details & history
Last TLE update: 4 days ago

TLE from 4 days ago
0 DELTA 1 DEB
1 42644U 75052MD  25284.64856528  .00000135  00000-0  42198-3 0  9990
2 42644  99.5894 253.5462 0159174  30.7954 330.2384 13.17228414222628
Epoch: 2025-10-11T15:33Z
TLE epoch observation values (Epoch: 2025-10-11T15:33:56.040Z)
Latitude
-0.00006°
Longitude
-0.41432°
Altitude
1,093.884 km
Speed
7.355 km/s
True Right ascension
16h 54m 11s
True Declination
0° 00' 00"
Sunlit
Object was in daylight at epoch
Visualization orbit readout
Latitude
Unknown
Longitude
Unknown
Altitude
Unknown
Speed
Unknown
Apparent Right ascension
Unknown
Apparent Declination
Unknown
Sunlit
N/A
Visualization observer readout
Local Sidereal Time
22:14:27
Azimuth
Unknown
Elevation
Unknown
Doppler factor
Unknown
Orbital elements
Apogee altitude
1,313.171 km
Perigee altitude
1,072.156 km
Semi-major axis
7,570.801 km
Eccentricity
0.01592
Inclination
99.5894°
RAAN
253.5462°
Arg. of periapsis
30.7954°
True anomaly
329.31712°
Mean anomaly
330.2384°
Eccentric anomaly
329.77936°
Mean motion
3.29481 °/min
Orbital period
109.26 mins
BSTAR
0.00042198
Loading maneuver chart data...
Computing Atmospheric mass density...
Loading historical data...
Loading historical data...
Loading historical data...
Loading historical data...
Loading historical data...
Loading historical data...
Loading historical data...

Documentation

Showing up to 5 results
|